[[{"header":{"parameterUnit":"m.s-1","parameterCategory":1,"la1":30.2991,"la2":30.254,"lo1":-89.0895,"lo2":-89.0444,"dy":0.0017,"dx":0.0017,"nx":28,"ny":28,"refTime":"2023-11-03T21:00:00:Z","depth":0,"parameterNumber":2,"parameterNumberName":"U-component_of_WINDS"},"data":[0,0,0,0,0,0,0,0,0,0,0,0,0,0,0,0,0,0,0,0,0,0,0,0,0,0,0,0,0,0,0,0,0,0,0,0,0,0,0,0,0,0,0,0,0,0,0,0,0,0,0,0,0,0,0,0,0,0,-0.2668,-0.2667,0,-0.2611,-0.261,-0.261,-0.2588,-0.2588,-0.2589,-0.2589,-0.253,-0.2528,-0.2526,0,0,0,0,0,0,0,0,0,0,0,0,0,-0.2758,-0.2756,-0.2668,-0.2667,-0.2666,-0.2611,-0.261,-0.261,-0.2588,-0.2588,-0.2589,-0.2589,-0.253,-0.2528,-0.2526,0,0,0,0,0,0,0,0,0,0,0,0,0,-0.2711,-0.2755,-0.2668,-0.2649,-0.2647,-0.2611,-0.261,-0.2609,-0.2588,-0.2588,-0.2589,-0.2589,-0.2531,-0.2529,-0.2526,-0.2505,0,0,-0.2518,-0.2517,0,0,0,0,0,0,0,0,-0.2714,-0.2708,-0.2652,-0.265,-0.2648,-0.2607,-0.262,-0.2574,-0.2588,-0.261,-0.2589,-0.2589,-0.2555,-0.2551,-0.2539,-0.2502,-0.2499,-0.2518,-0.2516,-0.2515,-0.2514,0,0,0,0,0,0,0,-0.2717,-0.271,-0.2645,-0.2652,-0.2649,-0.2643,-0.2637,-0.2612,-0.2582,-0.2608,-0.2607,-0.26,-0.2554,-0.2542,-0.2538,-0.2499,-0.2518,-0.2516,-0.2514,-0.2513,-0.2442,-0.2442,0,0,0,0,0,0,-0.2724,-0.2713,-0.2647,-0.2643,-0.2682,-0.2642,-0.2635,-0.262,-0.2582,-0.2577,-0.26,-0.26,-0.2546,-0.2541,-0.2536,-0.2509,-0.2515,-0.2513,-0.2511,-0.2443,-0.2442,-0.2442,0,0,0,0,0,0,-0.2726,-0.2718,-0.2649,-0.2678,-0.2669,-0.264,-0.2623,-0.2618,-0.2606,-0.2576,-0.2571,-0.2593,-0.2546,-0.2539,-0.2513,-0.2507,-0.2512,-0.2509,-0.2443,-0.2443,-0.2442,-0.2455,0,0,0,0,0,0,-0.2728,-0.2719,-0.271,-0.2678,-0.2667,-0.2627,-0.2623,-0.2617,-0.2602,-0.2601,-0.2568,-0.2563,-0.2546,-0.2517,-0.251,-0.2503,-0.2507,-0.2444,-0.2443,-0.2442,-0.2455,-0.2455,-0.2456,0,0,0,0,0,-0.2732,-0.2716,-0.271,-0.2702,-0.2656,-0.2627,-0.2621,-0.2602,-0.2602,-0.2593,-0.2574,-0.2564,-0.2509,-0.2515,-0.2507,-0.2499,-0.2444,-0.2443,-0.2442,-0.2455,-0.2455,-0.2456,0,0,0,0,0,0,-0.2747,-0.2711,-0.2704,-0.2677,-0.2655,-0.2623,-0.2612,-0.2602,-0.258,-0.2579,-0.2557,-0.2549,-0.2525,-0.2509,-0.2516,-0.2477,-0.2476,-0.2473,-0.2488,-0.2488,-0.2488,-0.2492,-0.2505,0,0,0,0,0,-0.2747,-0.2727,-0.2697,-0.2676,-0.2665,-0.2641,-0.2627,-0.2615,-0.2591,-0.2581,-0.256,-0.2538,-0.2515,-0.2501,-0.2478,-0.2453,-0.2446,-0.2444,-0.2444,-0.2445,-0.2443,-0.243,-0.2429,-0.244,-0.244,-0.244,0,0,-0.2748,-0.2725,-0.2714,-0.2678,-0.266,-0.264,-0.2633,-0.2611,-0.2596,-0.2578,-0.2552,-0.2536,-0.2509,-0.2484,-0.2472,-0.247,-0.2438,-0.2444,-0.2444,-0.2442,-0.2429,-0.2428,-0.2427,-0.2439,-0.2439,-0.2439,0,0,-0.2738,-0.2719,-0.27,-0.2682,-0.2655,-0.2639,-0.2634,-0.2604,-0.2593,-0.2567,-0.2554,-0.2535,-0.2497,-0.2479,-0.2465,-0.245,-0.2441,-0.2444,-0.2444,-0.2431,-0.243,-0.243,-0.2425,-0.2424,-0.2442,-0.2442,-0.2442,0,-0.2741,-0.271,-0.2691,-0.2671,-0.2656,-0.264,-0.2621,-0.2605,-0.2571,-0.2562,-0.2561,-0.2513,-0.2494,-0.2465,-0.2462,-0.2451,-0.2445,-0.2447,-0.2432,-0.2431,-0.243,-0.2425,-0.2424,-0.2443,-0.2443,-0.2443,-0.2443,0,-0.2716,-0.2695,-0.2683,-0.2652,-0.2636,-0.2616,-0.2595,-0.2581,-0.2571,-0.2555,-0.2529,-0.2506,-0.2479,-0.2472,-0.2461,-0.2441,-0.2441,-0.2437,-0.2435,-0.243,-0.2425,-0.2423,-0.2444,-0.2443,-0.2443,-0.2443,0,0,-0.2713,-0.2673,-0.2669,-0.2656,-0.2625,-0.2609,-0.2589,-0.2564,-0.2552,-0.253,-0.2514,-0.2483,-0.2479,-0.2463,-0.245,-0.2439,-0.243,-0.2435,-0.2435,-0.2436,-0.2408,-0.2412,-0.241,-0.2424,-0.2424,-0.2423,-0.2411,0,-0.2699,-0.2663,-0.2646,-0.2618,-0.2598,-0.2584,-0.2567,-0.2547,-0.2532,-0.2514,-0.2498,-0.2476,-0.2472,-0.2463,-0.2452,-0.2434,-0.2424,-0.2434,-0.2408,-0.2408,-0.2415,-0.2408,-0.2411,-0.24,-0.2409,-0.2408,-0.2408,0,-0.2678,-0.2657,-0.2627,-0.26,-0.2591,-0.2576,-0.2553,-0.2535,-0.2512,-0.2503,-0.2486,-0.2474,-0.2453,-0.2454,-0.2425,-0.2433,-0.2421,-0.2411,-0.241,-0.2407,-0.2407,-0.2404,-0.2396,-0.2395,-0.2405,-0.2405,-0.2406,0,-0.2679,-0.2643,-0.2621,-0.261,-0.2578,-0.2568,-0.2554,-0.2532,-0.2518,-0.2498,-0.2489,-0.2466,-0.2453,-0.2436,-0.2419,-0.242,-0.2393,-0.2391,-0.2384,-0.2385,-0.2378,-0.2379,-0.2368,-0.2371,-0.2371,-0.2371,-0.2371,0,-0.2665,-0.2647,-0.2621,-0.2607,-0.2587,-0.2569,-0.255,-0.2535,-0.2516,-0.2499,-0.2486,-0.247,-0.2448,-0.2431,-0.2417,-0.2396,-0.239,-0.2382,-0.2379,-0.2383,-0.2384,-0.2375,-0.2375,-0.2371,-0.2371,-0.2371,-0.2371,0,-0.2662,-0.2644,-0.2619,-0.2592,-0.2585,-0.2571,-0.2548,-0.2534,-0.252,-0.2499,-0.2493,-0.2471,-0.2449,-0.243,-0.2402,-0.2393,-0.2372,-0.2367,-0.2379,-0.2377,-0.2372,-0.2372,-0.2355,-0.2352,-0.2357,-0.2357,-0.2357,0,-0.2655,-0.2641,-0.2613,-0.2601,-0.2588,-0.2569,-0.2555,-0.2537,-0.2523,-0.2498,-0.2488,-0.2465,-0.2447,-0.2413,-0.2394,-0.2373,-0.2368,-0.2363,-0.2364,-0.237,-0.2368,-0.2369,-0.2368,-0.2363,-0.2363,-0.2363,-0.2363,0,-0.2643,-0.2635,-0.2616,-0.2594,-0.2579,-0.2561,-0.2542,-0.2533,-0.2512,-0.2498,-0.2476,-0.2462,-0.2433,-0.2412,-0.2389,-0.2375,-0.2366,-0.2363,-0.2361,-0.2365,-0.2372,-0.2369,-0.2379,-0.2363,-0.2363,-0.2363,-0.2363,-0.2363,-0.2638,-0.2625,-0.2604,-0.2583,-0.2568,-0.2551,-0.2538,-0.2522,-0.2504,-0.248,-0.247,-0.2449,-0.2428,-0.2396,-0.2382,-0.2366,-0.2364,-0.236,-0.2359,-0.2358,-0.2359,-0.2376,-0.2361,-0.2361,-0.2361,-0.2361,-0.2361,0,-0.2626,-0.2612,-0.2593,-0.2568,-0.2553,-0.2546,-0.2526,-0.2513,-0.2494,-0.2476,-0.2458,-0.2434,-0.2414,-0.2394,-0.2372,-0.2363,-0.2358,-0.2358,-0.2358,-0.2355,-0.2361,-0.2366,-0.2362,-0.2362,-0.2362,-0.2362,-0.2362,-0.2362,-0.2617,-0.2596,-0.2586,-0.2558,-0.2544,-0.2523,-0.2512,-0.2497,-0.2482,-0.2456,-0.2439,-0.2426,-0.2408,-0.2385,-0.2367,-0.2361,-0.2354,-0.2355,-0.2349,-0.2355,-0.2355,-0.2355,-0.2359,-0.2354,-0.2354,-0.2344,-0.2344,-0.2344]},{"header":{"parameterUnit":"m.s-1","parameterCategory":1,"la1":30.2991,"la2":30.254,"lo1":-89.0895,"lo2":-89.0444,"dy":0.0017,"dx":0.0017,"nx":28,"ny":28,"refTime":"2023-11-03T21:00:00:Z","depth":0,"parameterNumber":3,"parameterNumberName":"V-component_of_WINDS"},"data":[0,0,0,0,0,0,0,0,0,0,0,0,0,0,0,0,0,0,0,0,0,0,0,0,0,0,0,0,0,0,0,0,0,0,0,0,0,0,0,0,0,0,0,0,0,0,0,0,0,0,0,0,0,0,0,0,0,0,1.106,1.106,0,1.0999,1.0999,1.0998,1.0909,1.0907,1.0906,1.0904,1.0842,1.0842,1.0842,0,0,0,0,0,0,0,0,0,0,0,0,0,1.1099,1.1098,1.106,1.106,1.1059,1.0999,1.0999,1.0998,1.0909,1.0907,1.0905,1.0904,1.0842,1.0842,1.0842,0,0,0,0,0,0,0,0,0,0,0,0,0,1.1064,1.1098,1.106,1.1007,1.1002,1.1,1.0999,1.0998,1.091,1.0907,1.0905,1.0903,1.0843,1.0842,1.0842,1.0887,0,0,1.0841,1.0841,0,0,0,0,0,0,0,0,1.1067,1.1063,1.1016,1.1011,1.1005,1.0959,1.0989,1.096,1.091,1.0945,1.0904,1.0902,1.0883,1.0879,1.0873,1.0884,1.0881,1.0841,1.0841,1.0841,1.0841,0,0,0,0,0,0,0,1.1069,1.1065,1.1036,1.1015,1.1009,1.0986,1.0979,1.0983,1.0928,1.0942,1.0935,1.0929,1.088,1.0874,1.0871,1.088,1.0841,1.0841,1.0841,1.084,1.092,1.0922,0,0,0,0,0,0,1.1079,1.1068,1.1038,1.1034,1.1031,1.0988,1.0979,1.0976,1.0927,1.0918,1.0931,1.0925,1.0875,1.0871,1.0869,1.0914,1.0841,1.084,1.084,1.0918,1.092,1.0923,0,0,0,0,0,0,1.108,1.1078,1.1041,1.1049,1.1043,1.0989,1.0987,1.0976,1.097,1.0919,1.0909,1.0935,1.0873,1.0869,1.0882,1.091,1.084,1.084,1.0915,1.0918,1.0922,1.1007,0,0,0,0,0,0,1.1082,1.1078,1.1095,1.105,1.1043,1.1055,1.0989,1.0977,1.097,1.0961,1.092,1.0911,1.0871,1.0883,1.0881,1.0909,1.084,1.0912,1.0916,1.0921,1.1001,1.1013,1.1023,0,0,0,0,0,1.1084,1.1123,1.1097,1.1093,1.1063,1.1057,1.1053,1.1006,1.0973,1.0988,1.0955,1.0913,1.0909,1.0885,1.0883,1.091,1.091,1.0915,1.092,1.0997,1.1011,1.1023,0,0,0,0,0,0,1.1173,1.1116,1.1086,1.1112,1.109,1.1042,1.1061,1.1023,1.101,1.1003,1.0945,1.0936,1.0956,1.0935,1.091,1.0949,1.0902,1.0907,1.0961,1.0974,1.0985,1.0988,1.0839,0,0,0,0,0,1.1196,1.1196,1.1147,1.1174,1.1165,1.1115,1.1111,1.1076,1.1051,1.1042,1.101,1.0987,1.098,1.0977,1.0968,1.0999,1.0987,1.1017,1.1028,1.1037,1.1041,1.1052,1.1063,1.094,1.094,1.094,0,0,1.1242,1.1211,1.1215,1.1191,1.117,1.1171,1.1108,1.1112,1.1111,1.1042,1.1051,1.1027,1.0998,1.1019,1.1027,1.1002,1.1073,1.1044,1.1051,1.105,1.1058,1.107,1.108,1.0943,1.0943,1.0942,0,0,1.1327,1.1305,1.1323,1.1304,1.1272,1.1239,1.1243,1.1201,1.1182,1.119,1.1137,1.1136,1.1127,1.1106,1.1095,1.1171,1.1129,1.117,1.1225,1.1236,1.1246,1.1254,1.1277,1.1287,1.1175,1.1175,1.1175,0,1.1389,1.1388,1.1338,1.1345,1.1334,1.1272,1.1289,1.1272,1.124,1.1233,1.1207,1.1191,1.1167,1.1181,1.1199,1.1193,1.1194,1.1173,1.1249,1.1256,1.1263,1.1285,1.1294,1.118,1.1179,1.1179,1.1178,0,1.1463,1.1464,1.1483,1.1451,1.1444,1.1456,1.1407,1.1405,1.1371,1.134,1.1348,1.1317,1.1299,1.1301,1.1269,1.1309,1.1294,1.126,1.1211,1.1281,1.1299,1.1308,1.1186,1.1185,1.1183,1.1182,0,0,1.1601,1.1541,1.1548,1.1532,1.1493,1.1491,1.1501,1.1482,1.148,1.146,1.1464,1.1457,1.1423,1.141,1.1375,1.1386,1.1443,1.1349,1.1347,1.1364,1.1481,1.1505,1.1515,1.1417,1.1418,1.142,1.1482,0,1.1674,1.1685,1.164,1.1662,1.166,1.16,1.1607,1.1583,1.1555,1.1548,1.1517,1.151,1.1469,1.146,1.1468,1.1434,1.1465,1.143,1.1417,1.1417,1.1422,1.1525,1.1551,1.1611,1.1489,1.1491,1.1492,0,1.1761,1.1744,1.1766,1.1722,1.172,1.1727,1.1705,1.1701,1.1672,1.165,1.1635,1.1594,1.1598,1.1555,1.1557,1.1534,1.1527,1.151,1.1511,1.1505,1.1456,1.1518,1.163,1.1638,1.1504,1.1503,1.1502,0,1.1853,1.1837,1.1846,1.1835,1.1786,1.1792,1.1772,1.174,1.1731,1.1713,1.1706,1.1689,1.1678,1.1665,1.162,1.1593,1.1627,1.1581,1.1607,1.1608,1.1614,1.1613,1.1722,1.1616,1.1616,1.1616,1.1615,0,1.1938,1.1952,1.1887,1.1892,1.1906,1.1854,1.1869,1.1843,1.1816,1.1814,1.1763,1.1763,1.1705,1.1698,1.1663,1.1668,1.1665,1.1646,1.1636,1.1648,1.165,1.164,1.1633,1.1618,1.1617,1.1617,1.1617,0,1.2042,1.1999,1.2005,1.1958,1.1946,1.1958,1.1917,1.192,1.1888,1.1887,1.1883,1.1833,1.1822,1.1777,1.1755,1.1731,1.1747,1.173,1.1756,1.1749,1.1776,1.1772,1.1878,1.1888,1.178,1.1781,1.1782,0,1.2097,1.2106,1.206,1.2055,1.2036,1.203,1.202,1.197,1.1961,1.1928,1.1934,1.1919,1.1903,1.1887,1.1848,1.183,1.181,1.1848,1.1807,1.1818,1.1805,1.1804,1.1803,1.1856,1.1858,1.1859,1.186,0,1.2197,1.2175,1.2163,1.2143,1.2132,1.2115,1.2094,1.2093,1.2036,1.2029,1.2017,1.2005,1.1981,1.1965,1.1941,1.1919,1.1879,1.1874,1.1878,1.1889,1.1902,1.1891,1.1776,1.1871,1.187,1.1869,1.1868,1.1868,1.2274,1.2279,1.2246,1.2234,1.2213,1.2194,1.2193,1.2161,1.2149,1.2126,1.2097,1.2087,1.2056,1.2019,1.2,1.199,1.1969,1.1976,1.1977,1.1979,1.1983,1.1907,1.1986,1.1986,1.1986,1.1985,1.1985,0,1.2368,1.2344,1.2334,1.2305,1.2295,1.226,1.2234,1.2228,1.222,1.2194,1.2179,1.2163,1.2147,1.2107,1.2087,1.2087,1.2067,1.2082,1.208,1.2075,1.2006,1.2002,1.2098,1.2098,1.2098,1.2098,1.2098,1.2098,1.2415,1.2419,1.2394,1.2386,1.2362,1.2352,1.2339,1.2321,1.23,1.2284,1.227,1.2245,1.2212,1.2189,1.2172,1.216,1.2153,1.2173,1.2156,1.2091,1.208,1.207,1.2066,1.2173,1.2173,1.2225,1.2225,1.2225]}]]